Flag for China Weather past 2 weeks in Hangzhou, Zhejiang, China

50 °F


Feels Like: 50 °F
Forecast: 47 / 66 °F
Wind: 1 mph from Southwest

Location: Hangzhou Airport

Current Time: Nov 30, 2015 at 9:50:36 AM

Latest Report: Nov 30, 2015 at 9:00 AM

Visibility: 1 mi

Pressure: 30.30 "Hg

Humidity: 100%

Dew point: 50 °F

Location of HangzhouLocation

Historic Weather in Hangzhou — Graph


Hangzhou temperature yesterday

Maximum temperature yesterday: 52 °F (at 2:30 PM)
Minimum temperature yesterday: 45 °F (at 10:00 PM)
Average temperature yesterday: 49 °F

Past Weeks' High & Low Weather Summary

High72 °F (Nov 15, 1:30 PM)100% (Nov 16, 4:00 AM)30.48 "Hg (Nov 16, 4:00 AM)
Low28 °F (Nov 27, 6:30 AM)29% (Nov 27, 2:00 PM)29.92 "Hg (Nov 16, 4:30 AM)
Average55 °F86%30.22 "Hg
* Reported Nov 15 8:00 AM — Nov 30 8:30 AM, Hangzhou, Weather by CustomWeather, © 2015

Note: Actual official high and low records may vary slightly from our data, if they occured in-between our weather recording intervals... More about our weather records


Hangzhou weather history for previous 24 hours

Time TempWeatherWind HumidityBarometerVisibility
8:30 AM
Mon, Nov 30
50 °FFog.1 mph100%30.30 "Hg1 mi
8:00 AM50 °FFog.3 mph100%30.30 "Hg1 mi
7:30 AM50 °FFog.3 mph100%30.30 "Hg1 mi
7:00 AM50 °FFog.1 mph94%30.30 "Hg1 mi
6:30 AM48 °FFog.1 mph100%30.27 "Hg1 mi
6:00 AM48 °FFog.1 mph100%30.27 "Hg1 mi
5:30 AM48 °FFog.3 mph100%30.27 "Hg0 mi
5:00 AM48 °FFog.1 mph100%30.27 "Hg1 mi
4:30 AM48 °FFog.1 mph100%30.27 "Hg1 mi
4:00 AM48 °FFog.1 mph100%30.27 "Hg1 mi
3:30 AM48 °FFog.3 mph100%30.27 "Hg0 mi
3:00 AM48 °FFog.3 mph100%30.30 "Hg0 mi
2:30 AM48 °FFog.1 mph100%30.30 "Hg0 mi
2:00 AM48 °FFog.3 mph94%30.30 "Hg0 mi
1:30 AM48 °FFog.3 mph100%30.30 "Hg0 mi
1:00 AM48 °FFog.3 mph100%30.30 "Hg0 mi
12:30 AM48 °FFog.3 mph100%30.30 "Hg0 mi
12:00 AM48 °FFog.3 mph100%30.30 "Hg0 mi
11:30 PM
Sun, Nov 29
48 °FFog.3 mph94%30.30 "Hg0 mi
11:00 PM46 °FFog.6 mph100%30.30 "Hg0 mi
10:30 PM46 °FFog.1 mph93%30.30 "Hg1 mi
10:00 PM45 °FFog.1 mph93%30.30 "Hg2 mi
9:30 PM46 °FFog.No wind100%30.30 "Hg2 mi
9:00 PM46 °FFog.No wind100%30.30 "Hg2 mi
8:30 PM46 °FFog.1 mph100%30.30 "Hg2 mi
8:00 PM48 °FFog.1 mph94%30.30 "Hg2 mi
7:30 PM48 °FFog.1 mph100%30.30 "Hg2 mi
7:00 PM48 °FFog.3 mph94%30.30 "Hg2 mi
6:30 PM48 °FFog.1 mph94%30.30 "Hg2 mi
5:30 PM50 °FFog.1 mph94%30.27 "Hg2 mi
5:00 PM52 °FFog.1 mph94%30.27 "Hg2 mi
4:30 PM52 °FFog.1 mph94%30.27 "Hg2 mi
4:00 PM52 °FFog.1 mph94%30.27 "Hg2 mi
2:30 PM52 °FFog.3 mph94%30.27 "Hg2 mi
1:00 PM50 °FLight rain. Fog.3 mph94%30.27 "Hg1 mi
12:30 PM50 °FLight rain. Fog.1 mph94%30.30 "Hg1 mi
12:00 PM50 °FLight rain. Fog.1 mph94%30.30 "Hg1 mi
11:30 AM50 °FLight rain. Fog.3 mph94%30.30 "Hg1 mi
11:00 AM50 °FLight rain. Fog.3 mph94%30.33 "Hg1 mi
10:30 AM50 °FLight rain. Fog.3 mph94%30.33 "Hg1 mi
10:00 AM48 °FLight rain. Fog.1 mph100%30.33 "Hg1 mi
9:30 AM48 °FFog.3 mph100%30.33 "Hg1 mi
9:00 AM48 °FFog.3 mph94%30.33 "Hg1 mi
Weather by CustomWeather, © 2015

See weather overviewHow to use our weather pages